Location: Riddle Hill
(39.7867°N, 89.7645°W)
Time: 21:34:48
(UTC+00:00)

Cosmos 1300 - Pass Details

Date: 29 October 2020
Orbit: 511 x 514 km, 82.5° (Epoch: 01 December)

Event Time Altitude Azimuth Distance (km) Brightness Sun altitude
Rises 23:21:54 0° 184° (S) 2,613 6.5 -4.9°
Reaches altitude 10° 23:24:01 10° 184° (S) 1,732 5.6 -5.3°
Maximum altitude 23:27:49 83° 99° (E) 523 2.7 -6.0°
Drops below altitude 10° 23:31:39 10° 9° (N) 1,747 5.2 -6.7°
Sets 23:33:48 0° 9° (N) 2,639 6.1 -7.1°
